CAPE
0 0 0 0 0 0 0 0 0 0 0 0 0 0 0 1 1 2 1 1 0 0 0 0 0 0 0 0 0 0 0 0 0 0 0 0 0 0 0 0 0 0 0
0 0 0 0 0 0 0 0 0 0 0 0 0 0 0 0 0 1 2 2 1 1 1 0 0 0 0 0 0 0 0 0 0 0 0 0 0 0 0 0 0 0 0
0 0 0 0 0 0 0 0 0 0 0 0 0 0 0 0 0 0 0 1 2 1 1 1 1 0 0 0 0 0 0 0 0 0 0 0 0 0 0 0 0 0 0
0 0 0 0 0 0 0 0 0 0 0 0 0 0 0 0 0 0 0 0 0 0 0 0 1 0 0 0 0 0 0 0 0 0 0 0 0 0 0 0 0 0 0
0 0 0 0 0 0 0 0 0 0 0 0 0 0 0 0 0 0 0 0 0 0 0 0 0 0 0 0 0 0 0 0 0 0 0 0 0 0 0 0 0 0 0
0 0 0 0 0 0 0 0 0 0 0 0 0 0 0 0 0 1 0 0 0 0 0 0 0 0 0 0 0 0 0 0 0 0 0 0 0 0 0 0 0 0 0
0 0 0 0 0 0 0 0 0 0 0 0 0 0 0 0 0 0 0 0 0 0 0 0 0 0 0 0 0 0 0 0 0 0 0 0 0 0 0 0 0 0 0
0 0 0 0 0 0 0 0 0 0 0 0 0 0 0 0 0 0 0 0 0 0 0 0 0 0 0 0 0 0 0 0 0 0 0 0 0 0 0 0 0 0 0
0 0 0 0 0 0 0 0 0 0 0 0 0 0 0 0 0 0 0 0 0 0 0 0 0 0 0 1 0 0 0 0 0 0 0 0 0 0 0 0 0 0 0
0 0 0 0 0 0 0 0 0 0 0 0 0 0 0 0 0 0 0 0 0 0 0 0 0 0 1 4 0 0 0 0 0 0 0 0 0 0 0 0 0 0 0
0 0 0 0 0 0 0 0 0 0 0 0 0 0 0 0 0 0 0 0 0 0 0 0 0 0 0 4 5 0 0 0 0 0 0 0 0 0 0 0 0 0 0
0 0 0 0 0 2 0 0 0 0 0 0 0 0 0 0 0 0 0 0 0 0 0 0 0 3 1 5 0 2 2 0 0 0 0 0 0 0 0 0 0 0 0
0 0 0 0 0 0 0 0 1 1 0 0 0 0 0 0 0 0 0 1 0 0 0 0 0 0 0 2 0 2 0 0 0 0 0 0 0 0 0 0 0 0 0
0 0 0 0 0 0 0 0 1 1 2 3 1 0 0 0 0 0 0 0 0 0 0 0 0 0 0 0 0 0 0 0 0 0 0 0 0 0 0 0 0 0 0
0 0 0 0 0 0 0 0 2 0 3 1 1 3 1 0 2 3 3 0 1 1 0 0 0 0 0 0 0 0 0 0 0 0 0 0 0 0 0 0 0 0 0
0 0 0 0 0 0 0 0 0 3 8 12 13 9 7 13 10 9 9 8 3 21 0 0 0 0 0 0 0 1 0 0 0 0 0 0 0 0 0 0 0 0 0
0 0 0 0 0 0 0 0 0 0 1 1 4 9 10 11 12 11 10 9 8 3 3 0 0 0 0 0 0 0 0 0 0 0 0 0 0 0 0 0 0 0 0
0 0 0 0 0 0 0 0 0 0 0 0 0 2 5 8 9 11 10 6 0 0 0 0 0 0 0 0 0 0 0 0 0 0 0 0 0 0 0 0 0 0 0
0 0 0 0 0 0 0 0 0 0 0 0 0 0 0 1 4 3 3 0 0 0 0 0 0 0 0 0 0 0 0 0 0 0 0 0 0 0 0 0 0 0 0
0 0 0 0 0 0 0 0 0 0 0 0 0 0 0 0 0 0 0 0 0 0 0 0 0 0 0 0 0 0 0 1 0 0 0 0 0 0 0 0 0 0 0
0 0 0 0 0 0 0 0 0 0 0 0 0 0 17 0 0 0 0 0 0 0 0 0 0 0 0 0 0 0 0 1 0 0 0 0 0 0 0 0 0 0 0
0 0 0 0 0 0 0 0 0 0 0 0 0 0 7 0 0 0 0 0 0 0 0 0 0 0 0 0 0 0 0 0 0 0 0 0 0 0 0 0 0 0 0
0 0 0 0 0 0 0 0 0 0 0 0 0 0 0 0 0 0 0 0 0 0 0 0 0 0 0 0 0 0 0 0 0 0 0 0 0 0 0 0 0 0 0
0 0 0 0 0 0 0 0 0 0 0 0 0 0 0 0 0 0 0 0 0 0 0 0 0 0 0 0 0 0 0 0 0 0 0 0 0 0 0 0 0 0 0
0 0 0 0 0 0 0 0 0 0 0 0 0 0 0 0 0 0 0 0 0 0 0 0 0 0 0 0 0 0 0 0 0 0 0 1 0 0 0 0 0 0 0
0 0 0 0 0 0 0 0 0 0 0 0 0 0 0 0 0 0 0 0 0 0 0 0 0 0 0 0 0 0 0 0 0 0 0 1 0 0 0 0 0 0 0
CIN
0 0 0 0 0 0 0 0 0 0 0 0 0 0 0 0 0 0 0 0 0 0 0 0 0 0 0 0 0 0 0 0 0 0 0 0 0 0 0 0 0 0 0
0 0 0 0 0 0 0 0 0 0 0 0 0 0 0 0 0 0 0 0 0 0 0 0 0 0 0 0 0 0 0 0 0 0 0 0 0 0 0 0 0 0 0
0 0 0 0 0 0 0 0 0 0 0 0 0 0 0 0 0 0 0 0 0 0 0 0 -2 0 0 0 0 0 0 0 0 0 0 0 0 0 0 0 0 0 0
0 0 0 0 0 0 0 0 0 0 0 0 0 0 0 0 0 0 0 0 0 0 0 0 0 0 0 0 0 0 0 0 0 0 0 0 0 0 0 0 0 0 0
0 0 0 0 0 0 0 0 0 0 0 0 0 0 0 0 0 0 0 0 0 0 0 0 0 0 0 0 0 0 0 0 0 0 0 0 0 0 0 0 0 0 0
0 0 0 0 0 0 0 0 0 0 0 0 0 0 0 0 0 0 0 0 0 0 0 0 0 0 0 0 0 0 0 0 0 0 0 0 0 0 0 0 0 0 0
0 0 0 0 0 0 0 0 0 0 0 0 0 0 0 0 0 0 0 0 0 0 0 0 0 0 0 0 0 0 0 0 0 0 0 0 0 0 0 0 0 0 0
0 0 0 0 0 0 0 0 0 0 0 0 0 0 0 0 0 0 0 0 0 0 0 0 0 0 0 0 0 0 0 0 0 0 0 0 0 0 0 0 0 0 0
0 0 0 0 0 0 0 0 0 0 0 0 0 0 0 0 0 0 0 0 0 0 -1 0 0 0 0 0 0 0 0 0 0 0 0 0 0 0 0 0 0 0 0
0 0 0 0 0 0 0 0 0 0 0 0 0 0 0 0 0 0 0 0 0 0 0 0 -1 -1 0 0 0 0 0 0 0 0 0 0 0 0 0 0 0 0 0
0 0 0 0 0 0 0 0 0 0 0 0 0 0 0 0 0 0 0 0 0 0 0 0 -2 0 0 -1 0 0 0 0 0 0 0 0 0 0 0 0 0 0 0
0 0 0 0 0 0 0 0 0 0 0 0 0 0 0 0 0 0 0 0 0 0 0 0 0 0 0 -1 0 0 0 0 0 0 0 0 0 0 0 0 0 0 0
0 0 0 0 0 0 0 0 0 0 0 0 0 0 0 0 0 0 0 0 0 0 0 0 0 0 0 -7 0 0 0 0 0 0 0 0 0 0 0 0 0 0 0
0 0 0 0 0 0 0 0 0 0 0 0 0 0 0 0 0 0 0 0 0 0 0 0 0 0 0 0 0 0 0 0 0 0 0 0 0 0 0 0 0 0 0
0 0 0 0 0 0 0 0 0 0 0 0 -1 0 -1 0 0 0 -1 0 0 -1 0 0 0 0 0 0 0 0 0 0 0 0 0 0 0 0 0 0 0 0 0
0 0 0 0 0 0 0 0 0 0 0 0 0 0 0 0 0 0 0 0 -1 0 0 0 0 0 0 0 0 0 0 0 0 0 0 0 0 0 0 0 0 0 0
0 0 0 0 0 0 0 0 0 0 0 0 0 0 0 0 0 0 0 0 0 0 0 0 0 0 0 0 0 0 0 0 0 0 0 0 0 0 0 0 0 0 0
0 0 0 0 0 0 0 0 0 0 0 0 0 0 0 0 0 0 0 0 0 0 0 0 0 0 0 0 0 0 0 0 0 0 0 0 0 0 0 0 0 0 0
0 0 0 0 0 0 0 0 0 0 0 0 0 0 0 0 0 0 0 0 0 0 0 0 0 0 0 0 0 0 0 0 0 0 0 0 0 0 0 0 0 0 0
0 0 0 0 0 0 0 0 0 0 0 0 0 0 0 0 0 0 0 0 0 0 0 0 0 0 0 0 0 0 0 0 0 0 0 0 0 0 0 0 0 0 0
0 0 0 0 0 0 0 0 0 0 0 0 0 0 0 -4 0 0 0 0 0 0 0 0 0 0 0 0 0 0 0 0 0 0 0 0 0 0 0 0 0 0 0
0 0 0 0 0 0 0 0 0 0 0 0 0 0 0 0 0 0 0 0 0 0 0 0 0 0 0 0 0 0 0 0 0 0 0 0 0 0 0 0 0 0 0
0 0 0 0 0 0 0 0 0 0 0 0 0 0 0 0 0 0 0 0 0 0 0 0 0 0 0 0 0 0 0 0 0 0 0 0 0 0 0 0 0 0 0
0 0 0 0 0 0 0 0 0 0 0 0 0 0 0 0 0 0 0 0 0 0 0 0 0 0 0 0 0 0 0 0 0 0 0 0 0 0 0 0 0 0 0
0 0 0 0 0 0 0 0 0 0 0 0 0 0 0 0 0 0 0 0 0 0 0 0 0 0 0 0 0 0 0 0 0 0 0 -7 0 0 0 0 0 0 0
0 0 0 0 0 0 0 0 0 0 0 0 0 0 0 0 0 0 0 0 0 0 0 0 0 0 0 0 0 0 0 0 0 0 0 0 0 0 0 0 0 0 0
Wind_Speed
11 11 9 9 8 8 7 8 8 8 9 11 10 9 10 10 10 8 7 7 5 5 3 3 2 1 2 1 1 2 3 2 2 1 1 1 2 3 3 3 2 2 1
9 10 11 11 11 11 10 10 9 9 9 10 10 9 9 9 9 10 8 7 7 6 5 3 2 0 2 2 1 2 2 2 3 2 1 1 0 1 2 3 1 1 0
11 12 12 13 12 12 12 13 11 10 10 9 9 9 9 8 8 8 8 7 7 6 5 5 3 1 3 3 3 2 1 2 2 2 2 1 1 1 1 1 1 0 1
11 11 12 13 13 12 11 11 11 10 9 10 9 8 8 7 6 7 8 7 7 6 5 4 4 4 1 2 3 3 2 2 2 2 1 1 1 1 1 1 1 1 1
11 11 11 11 11 11 12 11 11 11 9 8 9 8 7 6 7 8 7 8 8 6 5 5 4 5 5 2 2 3 4 2 1 2 1 1 1 1 2 1 1 1 2
8 8 8 10 10 11 12 12 10 11 11 10 9 8 10 6 14 16 11 6 7 7 7 6 5 5 7 6 1 3 5 4 3 2 1 2 2 2 2 2 1 1 1
6 7 9 9 10 11 11 11 11 11 11 10 10 9 9 9 17 17 14 5 5 5 6 6 6 4 5 5 5 1 3 4 4 4 2 2 1 3 3 3 2 2 1
5 5 6 8 9 10 11 11 11 9 10 10 11 10 9 8 17 17 15 5 4 6 7 6 6 6 5 4 4 2 3 3 3 2 2 2 3 3 4 3 4 3 1
6 6 5 5 9 9 10 10 10 11 10 9 9 11 10 10 17 17 14 5 5 4 4 6 5 6 10 8 3 1 2 3 3 4 6 6 2 3 5 3 2 2 1
8 10 7 5 6 9 8 9 8 8 10 9 11 8 10 10 16 16 12 4 7 5 4 5 10 9 12 10 1 2 2 2 3 2 3 5 7 6 6 2 3 2 2
10 10 10 9 10 9 9 8 9 9 9 7 9 8 7 6 9 17 15 2 3 5 4 4 3 13 13 10 8 2 2 3 5 4 2 3 4 4 3 4 3 2 2
9 10 10 9 8 8 11 9 9 8 8 8 8 8 5 5 13 15 18 14 10 1 4 2 4 13 12 10 6 6 4 5 3 3 2 2 2 2 2 3 4 4 5
9 9 10 10 9 10 10 10 8 8 7 7 7 7 8 7 8 18 18 16 13 6 2 6 11 12 12 8 8 9 6 3 3 2 2 1 1 2 3 3 4 5 6
8 9 9 9 10 9 8 8 7 7 7 7 7 7 8 8 7 7 8 8 10 7 7 4 6 8 8 7 3 5 1 3 2 2 2 2 1 1 1 1 2 1 1
6 8 8 7 8 8 8 7 8 9 9 9 7 8 8 8 8 17 15 10 9 9 4 2 3 3 3 4 3 2 1 2 2 2 2 3 2 2 1 1 1 1 2
7 6 6 6 7 7 7 8 12 15 18 19 19 15 8 17 21 20 20 20 21 21 2 2 3 3 2 3 4 4 1 1 1 2 2 2 2 2 2 1 1 1 2
4 6 5 6 6 7 7 7 10 10 16 16 17 18 19 19 20 21 21 21 21 18 8 3 5 4 2 2 2 3 3 2 1 2 2 2 3 1 2 1 1 1 1
3 7 4 5 5 6 6 7 7 8 10 9 12 17 18 19 19 19 19 17 8 6 7 3 6 5 3 3 1 1 2 3 1 1 2 3 3 2 2 2 2 3 2
4 3 3 4 5 6 6 6 6 7 8 9 9 12 9 19 20 16 15 5 5 6 6 8 4 4 3 3 3 2 3 3 2 1 1 2 3 3 2 2 3 4 3
3 7 5 3 5 5 5 6 6 7 8 7 8 8 8 6 4 4 3 3 4 5 6 6 6 3 3 4 3 3 2 2 1 1 2 3 3 3 3 3 3 2 2
3 4 4 3 4 4 5 6 6 6 7 8 9 8 20 11 7 7 4 2 3 6 7 7 5 4 2 2 3 3 2 2 3 3 2 2 3 2 3 3 3 3 3
3 4 2 3 4 4 5 4 6 6 7 8 9 9 20 7 7 6 6 5 5 5 6 6 6 5 5 3 3 3 3 3 2 3 2 2 3 2 3 3 3 2 3
3 4 4 3 4 5 5 5 5 6 7 8 9 9 7 6 6 6 6 7 5 5 6 5 4 6 4 4 3 3 4 4 4 3 2 2 3 3 3 2 3 2 3
3 4 5 5 4 5 5 6 5 7 7 8 8 8 8 7 8 9 7 6 5 5 5 6 4 5 5 5 4 3 3 4 3 4 4 3 3 4 3 2 3 4 4
4 5 5 5 5 6 6 6 5 6 6 7 8 8 8 7 8 8 7 6 6 5 6 7 6 5 8 9 8 7 5 6 3 5 4 3 4 6 4 3 3 3 4
5 5 5 4 5 6 5 7 7 6 7 7 7 8 8 8 8 8 8 6 6 7 6 6 7 8 8 7 8 9 7 7 5 5 4 3 3 3 4 4 7 4 6
Wind_Direction
2 350 359 351 355 349 357 351 350 342 345 343 353 3 4 1 3 9 9 6 14 358 347 291 282 179 177 164 120 169 191 159 149 153 88 125 137 158 132 124 131 126 41
4 5 5 5 5 356 354 343 344 346 343 348 347 357 354 358 359 6 6 5 8 7 359 349 319 151 220 172 193 183 180 140 122 157 135 120 106 145 161 152 164 131 200
15 13 11 7 4 2 355 346 343 341 342 346 351 352 354 351 349 358 2 6 3 11 356 354 344 214 214 182 180 172 151 127 105 131 151 148 132 145 130 158 181 260 268
13 18 9 360 357 354 351 348 343 338 344 342 342 335 344 340 344 350 358 4 3 9 354 0 356 348 321 193 180 188 164 121 136 119 136 179 143 122 150 212 255 189 280
9 9 360 349 350 347 349 348 344 343 344 332 330 338 333 346 350 354 355 357 0 360 355 7 4 349 335 332 162 160 154 131 127 125 169 175 159 162 229 178 222 103 272
3 354 347 354 348 346 342 342 343 342 345 337 339 336 339 343 348 350 0 359 355 356 350 356 359 8 358 356 291 178 171 164 166 153 193 216 191 176 178 197 162 149 316
352 342 348 347 346 343 336 336 343 341 335 335 335 339 335 329 344 348 351 352 354 347 347 354 353 355 6 346 356 55 157 164 138 162 177 211 222 199 164 185 168 158 212
333 330 334 343 341 336 336 336 332 332 330 330 326 329 328 322 336 341 341 339 351 9 354 344 351 351 355 344 338 102 110 89 91 119 168 244 226 245 190 177 169 121 79
336 328 324 329 335 331 329 325 322 325 326 327 322 321 328 324 330 332 336 333 356 337 341 346 350 354 344 348 343 299 144 111 61 103 83 47 40 142 156 111 96 128 149
337 330 323 319 319 317 309 313 312 307 311 318 318 316 311 316 328 331 330 322 334 332 327 339 360 355 347 354 351 271 244 174 140 75 21 36 46 69 105 75 157 139 116
328 329 331 329 320 310 311 315 313 313 313 310 311 315 298 307 326 342 337 316 291 320 332 334 333 353 344 346 350 212 233 146 134 107 88 49 56 52 55 46 42 115 123
331 328 326 323 323 325 322 317 318 319 320 321 322 328 326 323 342 341 345 338 318 275 301 297 297 338 342 355 356 322 237 124 114 119 115 79 71 54 26 57 58 54 44
331 324 323 323 327 331 328 327 322 328 325 324 329 330 328 340 335 336 339 346 345 327 273 298 333 336 333 332 343 339 126 134 132 146 153 135 119 113 107 71 69 82 71
319 322 325 328 328 330 328 325 324 323 323 322 318 318 315 319 321 321 326 326 328 336 319 320 319 329 320 321 338 348 115 139 159 149 142 119 103 81 105 56 80 44 94
319 317 322 324 325 323 323 320 318 316 306 306 309 305 311 310 311 311 316 313 315 305 308 329 345 1 359 346 336 16 51 130 141 129 132 145 144 110 67 107 110 101 74
320 325 324 321 321 318 316 314 316 321 323 319 314 309 302 301 306 306 307 308 306 318 221 254 294 313 337 341 344 320 4 232 158 139 119 126 154 137 139 115 109 120 109
283 306 317 318 314 316 318 316 318 322 323 323 324 324 319 309 306 302 300 300 298 311 300 212 247 253 244 276 327 325 318 307 152 151 151 154 130 133 129 128 134 113 118
280 291 290 300 303 307 309 310 309 314 319 318 319 319 319 323 317 310 303 301 306 305 307 226 220 231 201 210 232 262 307 327 278 180 151 161 154 135 139 166 181 186 162
300 283 274 285 287 289 295 297 299 301 302 304 313 315 313 319 320 319 322 327 314 306 299 313 249 189 191 186 206 241 285 277 250 200 175 157 159 143 154 166 173 177 138
261 269 272 286 302 304 296 296 299 296 299 298 303 301 309 305 302 285 260 280 292 283 297 301 333 295 207 174 187 215 262 298 263 222 182 170 167 169 162 165 182 147 170
259 269 259 288 286 281 284 287 285 289 291 293 291 294 308 313 322 317 309 291 291 314 321 323 318 305 276 238 174 183 212 259 293 247 181 172 163 168 160 153 167 157 141
243 261 276 265 279 284 278 264 285 289 291 293 296 297 310 308 290 282 286 270 263 266 280 290 301 319 311 261 197 179 202 237 267 264 190 173 166 168 144 148 144 141 140
243 269 271 269 255 272 279 265 272 279 285 288 294 299 302 293 277 270 262 270 252 261 269 272 269 290 296 288 248 196 186 220 230 218 209 181 166 161 152 150 148 125 150
241 250 255 263 274 275 265 280 275 272 276 283 289 289 291 292 288 278 268 264 255 251 258 267 252 247 275 278 278 245 226 268 294 292 226 174 183 172 155 144 160 162 153
239 250 245 254 263 273 280 274 268 271 271 275 285 285 283 281 283 281 267 257 258 249 254 260 261 231 249 255 261 266 263 275 276 301 308 177 190 180 170 156 156 142 124
239 238 244 247 257 259 258 275 276 274 277 282 284 287 286 286 282 279 277 261 255 254 245 255 258 247 241 245 251 255 246 252 261 260 273 257 189 181 166 158 171 159 148